Regional Weather Roundup
Issued by NWS Grand Forks, ND

Home | Current Version | Previous Version | Graphics & Text | Print | Product List | Glossary On
Versions: 1 2 3 4 5 6 7 8 9 10 11 12 13 14 15 16 17 18 19 20 21 22 23 24 25 26 27 28 29 30 31 32 33 34 35 36 37 38 39 40 41 42 43 44 45 46 47 48 49 50
000
ASUS43 KFGF 161431
RWRFGF
PRAIRIE TO PINES  WEATHER ROUNDUP
NATIONAL WEATHER SERVICE EASTERN NORTH DAKOTA/GRAND FORKS ND
800 AM CST MON JAN 16 2017

 **SATELLITE DATA USED TO AUGMENT SKY COVER AT AUTOMATED STATIONS**
 *****  WEATHER ACROSS EASTERN NORTH DAKOTA  *****

CITY           SKY/WX    TMP DP  RH WIND       PRES   REMARKS
GRAND FORKS    FAIR       4  -2  76 S9        30.06R WCI -10
GRAND FRKS AFB FAIR      10   2  72 W7        30.05R WCI  -1
DEVILS LAKE    FAIR       6   2  83 W7        30.03R WCI  -6
FARGO          FAIR       9   5  84 S10       30.09R WCI  -5
WAHPETON ARPT  FAIR       7   3  85 SE3       30.11S
$$

 ***** WEATHER ACROSS CENTRAL AND WESTERN NORTH DAKOTA  *****

CITY           SKY/WX    TMP DP  RH WIND       PRES   REMARKS
BISMARCK       FAIR      -4 -10  75 CALM      30.09R
MINOT          FAIR      16  10  77 W9        30.02S WCI   4
JAMESTOWN      FAIR      10   3  73 W8        30.03S WCI  -2
MINOT AFB      FAIR      11   7  83 NW13      30.02R WCI  -4
GARRISON         N/A     11   4  73 W9        30.04S WCI  -2
WILLISTON      FAIR       6   2  83 S6        30.11R WCI  -4
DICKINSON      FAIR      13   5  70 W15       30.04R WCI  -3
HETTINGER      FAIR      11   4  73 NW8       30.08R WCI  -1
$$

 *****  OTHER AIRPORT OBSERVATIONS IN OUR AREA  *****

CITY           SKY/WX    TMP DP  RH WIND       PRES   REMARKS
WALHALLA       NOT AVBL
GRAFTON AIRPOR FAIR       3   0  85 S12       30.06R WCI -13
VALLEY CITY AR FAIR      10   5  79 SW6       30.06R WCI   1
CANDO          NOT AVBL
CAVALIER APRT    N/A      5   1  85 CALM      30.03S
GWINNER        FAIR      12  10  92 SW8       30.08S WCI   1
SHEYENNE NWR     N/A      6   1  81 SW5       29.95S WCI  -3
ROLLA            N/A    N/A N/A N/A MISG        N/A
 ***** THE ABOVE OBSERVATIONS ARE NON NWS ARE NOT QUALITY
       CONTROLLED AND MAY MIS-REPORT RAIN FOR SNOW...
$$

  *****  WEATHER ACROSS NORTHERN MINNESOTA  *****

CITY           SKY/WX    TMP DP  RH WIND       PRES   REMARKS
FLAG ISLAND    FAIR       3   0  85 S6        30.04R WCI  -8
WARROAD        FAIR       7   1  78 CALM      30.04R
ROSEAU         FAIR       7   1  78 CALM      30.04R
HALLOCK        FAIR       1  -2  85 SE8       30.03R WCI -12
THF RVR FALLS  FAIR       8   5  87 S10       30.05S WCI  -6
BAUDETTE       FAIR       2  -3  80 S3        30.03R
WASKISH        FAIR       1  -2  85 CALM      30.04S
CROOKSTON      FAIR       7   3  85 S6        30.09R WCI  -3
STEPHEN NDAWN    N/A      5   0  78 SE3         N/A
GREENBUSH NDAW   N/A      3   0  85 S6          N/A  WCI  -8
$$
  *****  WEATHER ACROSS CENTRAL AND WEST MINNESOTA  *****

CITY           SKY/WX    TMP DP  RH WIND       PRES   REMARKS
FOSSTON        FAIR      10   9  92 S12       30.07R WCI  -4
BEMIDJI        FAIR       4   2  88 CALM      30.05R
PARK RAPIDS    FAIR       6   1  80 CALM      30.07R HAZE
ELBOW LAKE     FAIR      13  10  89 E7        30.09F FOG     WCI   3
WADENA           N/A      7   3  85 CALM      30.09R FOG
DETROIT LAKES    N/A     14  12  92 CALM      30.09R FOG
MOORHEAD       FAIR      12  10  92 S8        30.10S WCI   1
FERGUS FALLS   FAIR      14  10  85 SE6       30.15S WCI   5
MORRIS MN      FAIR       9   7  92 SE5       30.10S WCI   0
STAPLES        FAIR       9   7  92 CALM      30.10R FOG
$$
  *****  WEATHER ELSEWHERE ACROSS MINNESOTA  *****

CITY           SKY/WX    TMP DP  RH WIND       PRES   REMARKS
DULUTH         FAIR      16  13  88 W10       30.10R FOG     WCI   4
INTRNTL FALLS  FAIR      -2  -7  79 CALM      30.05R HAZE
ELY            FAIR       3   0  85 CALM      30.08R
CLOQUET        FAIR      16  12  86 SW5       30.12R FOG     WCI   9
WHEATON        FAIR      10   7  85 SE5       30.11F WCI   2
BRAINERD       FAIR       5   3  91 CALM      30.11F FOG
HIBBING        CLOUDY    -4  -7  87 CALM      30.09R
ALEXANDRIA     FAIR      11   8  88 NW5       30.10S WCI   3
SAINT CLOUD    FAIR       3   0  87 CALM      30.14F
MINNEAPOLIS    MOCLDY    17  12  80 E5        30.18S WCI  10
$$

  *****  WEATHER ACROSS SOUTH DAKOTA  *****

CITY           SKY/WX    TMP DP  RH WIND       PRES   REMARKS
SIOUX FALLS    CLOUDY    24  20  84 NE3       30.06S
BROOKINGS      FAIR      10   7  87 CALM      30.08S
WATERTOWN      FAIR       7   3  84 CALM      30.07F FOG
HURON          FAIR      11   8  88 CALM      30.11R
SISSETON         N/A     10   8  92 S3        30.07F
ABERDEEN       FAIR      -2  -7  79 S8        30.10S WCI -17
MITCHELL       FAIR      16  14  92 NW8       30.10F WCI   5
PIERRE         FAIR       6   2  83 W5        30.09R WCI  -3
MOBRIDGE       FAIR      -4 -10  75 CALM      30.05S
RAPID CITY     FAIR      26   8  46 N18       30.06S WCI  13
$$

  *****  SOME WEATHER IN NEARBY STATES *****

CITY           SKY/WX    TMP DP  RH WIND       PRES   REMARKS
GLASGOW MT     FAIR       0  -4  83 NW6       30.12R WCI -12
GREAT FALLS MT FAIR      21  10  62 S16       30.10R WCI   7
CHEYENNE WY    CLOUDY    31  14  49 N17G26    30.00R WCI  19
SCOTTSBLUFF NE CLOUDY    35  23  61 N10       30.04R
OMAHA NE       LGT RAIN  33  29  85 NE9       29.99F FOG
DES MOINES IA  FRZ RAIN  33  31  92 E8        30.07F FOG
DAVENPORT IA   MIX PCPN  32  31  96 E10       30.18F VSB 1   WCI  24
CHICAGO IL     FRZ RAIN  32  30  92 E6        30.25F
EAU CLAIRE WI  FAIR       5   3  91 NE3       30.20S FOG
LA CROSSE WI   CLOUDY   N/A N/A N/A SE5       30.20F
$$

  *****  SOME NATIONAL WEATHER *****

CITY           SKY/WX    TMP DP  RH WIND       PRES   REMARKS
LA GUARDIA NY  FAIR      34  19  54 N3        30.47R
RALEIGH NC     CLOUDY    44  27  51 NE5       30.44R
ATLANTA GA     PTSUNNY   56  51  84 E7        30.29R
NEW ORLEANS LA FAIR      65  64  97 SE7       30.13R
OKLAHOMA CITY  CLOUDY    40  39  97 SW13      29.91R FOG
ALBUQUERQUE NM MOCLDY    37  35  92 SE3       29.94R
SALT LAKE CITY CLOUDY    25  21  85 N8        30.25R WCI  16
LOS ANGELES CA FAIR      53  50  89 N6        30.05S
BOISE ID       FAIR       1  -2  87 CALM      30.45R
SEATTLE WA     FAIR      30  26  85 SE6       30.20F WCI  24
$$

*** WEATHER ACROSS MANITOBA...SASKATCHEWAN AND ONTARIO ***
                ***ONTARIO***

CITY           SKY/WX    TMP DP  RH WIND       PRES   REMARKS
GERALDTON      MOCLDY    21  16  79 W5        30.03R WCI  15
THUNDER BAY    PTCLDY     1  -2  85 NW2       30.10R
SIOUX LOOKOUT  MOCLDY     9   5  85 VRB2      30.03R
TORONTO        PTCLDY    27  19  74 S3        30.33R
BIG TROUT LK   LGT SNOW  14  10  85 NE3       30.02S
PICKLE LAKE    FOG       16  14  93 SW5       30.01S VSB 5/8 WCI   9
DRYDEN         MOCLDY    12   9  85 S7        30.01R WCI   2
KENORA         MOCLDY    10   7  85 S7        30.00R WCI   0
$$
                *** MANITOBA***

CITY           SKY/WX    TMP DP  RH WIND       PRES   REMARKS
BRANDON        PTCLDY     7   1  78 W8        29.99S WCI  -6
DAUPHIN        CLEAR     21  16  79 W12       29.98S WCI   9
ISLAND LAKE    CLOUDY    21  19  93 S6        29.99R FOG     WCI  14
PILOT MOUND      N/A      5   1  85 SW6         N/A  WCI  -6
THE PAS        CLEAR     14  12  92 S5        29.92R WCI   6
THOMPSON       LGT SNOW  16  14  93 E3        29.91S
WINNIPEG       PTCLDY     7   1  78 S5        30.01  WCI  -2
LYNN LAKE      FOG       21  21 100 S6        29.78F VSB 3/4 WCI  14
CHURCHILL      PTCLDY   -13 -18  77 S5        30.04F WCI -25
GILLAM         CLOUDY    -6 -11  77 SE3       30.02R
$$
                ***SASKATCHEWAN***

CITY           SKY/WX    TMP DP  RH WIND       PRES   REMARKS
ESTEVAN        PTCLDY     7   3  85 W7        30.05R WCI  -5
KINDERSLEY     PTCLDY    12   9  85 S10       29.98F WCI  -1
LLOYDMINSTER   PTCLDY    21  16  79 SW12      29.86F WCI   9
PRINCE ALBERT  CLEAR      1  -2  85 CALM      29.95S
REGINA         CLEAR     10   9  92 SW6       30.05R WCI   1
YORKTON        CLEAR     10   9  92 SW6       30.00R WCI   1
N. BATTLEFORD  CLEAR     25  18  74 SW10      29.95F WCI  15
LA RONGE       CLEAR     21  19  93 S6        29.83F WCI  14
SASKATOON      PTCLDY    14  10  85 SW8       30.00F WCI   3
SWIFT CURRENT  CLEAR     21  16  79 SW13      30.03S WCI   9
$$
NOTE: THESE ARE AUTOMATED STATIONS WITH LIMITED QUALITY CONTROL
      "FAIR" INDICATES FEW OR NO CLOUDS BELOW 12,000 FEET WITH NO
      SIGNIFICANT WEATHER AND/OR OBSTRUCTIONS TO VISIBILITY.
      SKY/WX - SKY CONDITION AND SIGNIFICANT WEATHER.
      TMP - AIR TEMPERATURE.    DP   - DEWPOINT TEMPERATURE.
      RH  - RELATIVE HUMIDITY.  PRES - PRESSURE.
      HX  - HEAT INDEX.         WCI  - WIND CHILL INDEX.
$



USA.gov is the U.S. government's official web portal to all federal, state and local government web resources and services.